User: anonymous   Login
Location: Unspecified
(0.0000°N, 0.0000°E)
Time: 09:30:11
(UTC+00:00)
Language:

Aussat K1 - Orbit

View from above orbital plane
View from above orbital plane
View from above satellite
View from above satellite

Ground track
Ground track

The orbit data is extracted from the following two-line orbital elements,

1 15993U 85076B   14296.76187863  .00000081  00000-0  00000+0 0  8606
2 15993 014.9042 017.8006 0003400 200.6720 118.2293 00.99762543 77145
Epoch (UTC): 23 October 2014 18:17:06
Eccentricity: 0.0003400
inclination: 14.9042°
perigee height: 35915 km
apogee height: 35944 km
right ascension of ascending node: 17.8006°
argument of perigee: 200.6720°
revolutions per day: 0.99762543
mean anomaly at epoch: 118.2293°
orbit number at epoch: 7714

The dashed part of the orbit path shows where the satellite is in the earth's shadow,  

DLR